FW775 KNUW-KNUW

Flight info

Callsign FW775
Flight time 1h 41m
Altitude 1500
Route VFR OPR
Aircraft H60/M-DOV/C

Departure

Time 2026-05-07 00:44
Airport Whidbey Island Naval Air Station (Ault Field) (KNUW)

Arrival

Time 2026-05-07 02:26
Airport Whidbey Island Naval Air Station (Ault Field) (KNUW)
Time Latitude Longitude Altitude Speed Heading
2026-05-07 00:28 48.34503 -122.66732 21 ft 0 kts 55°
2026-05-07 00:40 48.34509 -122.66719 23 ft 3 kts 56°
2026-05-07 00:40 48.34502 -122.66667 22 ft 9 kts 142°
2026-05-07 00:40 48.34448 -122.66594 21 ft 10 kts 110°
2026-05-07 00:41 48.34461 -122.66509 21 ft 6 kts 65°
2026-05-07 00:41 48.34477 -122.66450 21 ft 6 kts 71°
2026-05-07 00:41 48.34491 -122.66386 21 ft 7 kts 72°
2026-05-07 00:41 48.34506 -122.66317 21 ft 6 kts 72°
2026-05-07 00:42 48.34509 -122.66303 23 ft 0 kts 72°
2026-05-07 00:42 48.34509 -122.66301 23 ft 2 kts 73°
2026-05-07 00:42 48.34503 -122.66294 34 ft 5 kts 253°
2026-05-07 00:42 48.34328 -122.66338 204 ft 60 kts 180°
2026-05-07 00:43 48.33717 -122.65905 298 ft 124 kts 166°
2026-05-07 00:43 48.32824 -122.65666 344 ft 135 kts 175°
2026-05-07 00:43 48.31871 -122.65440 415 ft 143 kts 174°
2026-05-07 00:43 48.30861 -122.65096 393 ft 155 kts 168°
2026-05-07 00:44 48.29875 -122.64491 381 ft 153 kts 160°
2026-05-07 00:44 48.28909 -122.63883 447 ft 151 kts 160°
2026-05-07 00:44 48.27972 -122.63297 857 ft 141 kts 160°
2026-05-07 00:44 48.27068 -122.62720 847 ft 140 kts 160°
2026-05-07 00:45 48.26175 -122.62135 845 ft 139 kts 159°
2026-05-07 00:45 48.25228 -122.61545 764 ft 159 kts 162°
2026-05-07 00:45 48.24216 -122.60931 771 ft 154 kts 161°
2026-05-07 00:45 48.23222 -122.60359 775 ft 155 kts 161°
2026-05-07 00:46 48.22210 -122.59751 768 ft 157 kts 160°
2026-05-07 00:46 48.21201 -122.59138 775 ft 156 kts 161°
2026-05-07 00:46 48.20193 -122.58509 778 ft 157 kts 161°
2026-05-07 00:46 48.19174 -122.57911 772 ft 160 kts 161°
2026-05-07 00:47 48.18141 -122.57314 774 ft 159 kts 161°
2026-05-07 00:47 48.17106 -122.56711 779 ft 159 kts 161°
2026-05-07 00:47 48.16061 -122.56104 775 ft 160 kts 161°
2026-05-07 00:47 48.15038 -122.55511 776 ft 160 kts 161°
2026-05-07 00:48 48.14004 -122.54916 775 ft 159 kts 161°
2026-05-07 00:48 48.12968 -122.54317 773 ft 159 kts 161°
2026-05-07 00:48 48.11933 -122.53717 777 ft 159 kts 161°
2026-05-07 00:48 48.10897 -122.53118 777 ft 159 kts 161°
2026-05-07 00:49 48.09864 -122.52518 773 ft 159 kts 161°
2026-05-07 00:49 48.08816 -122.51919 774 ft 159 kts 161°
2026-05-07 00:49 48.07783 -122.51326 772 ft 159 kts 161°
2026-05-07 00:49 48.06765 -122.50740 771 ft 159 kts 161°
2026-05-07 00:50 48.05730 -122.50139 759 ft 159 kts 161°
2026-05-07 00:50 48.04698 -122.49540 758 ft 159 kts 161°
2026-05-07 00:50 48.03661 -122.48944 753 ft 159 kts 161°
2026-05-07 00:50 48.02633 -122.48344 761 ft 157 kts 161°
2026-05-07 00:51 48.01601 -122.47728 759 ft 158 kts 161°
2026-05-07 00:51 48.00591 -122.47125 758 ft 159 kts 161°
2026-05-07 00:51 47.99568 -122.46517 758 ft 158 kts 161°
2026-05-07 00:51 47.98553 -122.45897 772 ft 156 kts 161°
2026-05-07 00:52 47.97544 -122.45280 768 ft 156 kts 161°
2026-05-07 00:52 47.96536 -122.44663 770 ft 156 kts 161°
2026-05-07 00:52 47.95526 -122.44045 776 ft 157 kts 161°
2026-05-07 00:52 47.94513 -122.43431 777 ft 158 kts 161°
2026-05-07 00:53 47.93495 -122.42794 774 ft 159 kts 161°
2026-05-07 00:53 47.92486 -122.42155 775 ft 157 kts 161°
2026-05-07 00:53 47.91478 -122.41517 778 ft 157 kts 161°
2026-05-07 00:53 47.90469 -122.40883 779 ft 157 kts 161°
2026-05-07 00:54 47.89456 -122.40249 777 ft 157 kts 161°
2026-05-07 00:54 47.88445 -122.39624 776 ft 159 kts 161°
2026-05-07 00:54 47.87433 -122.39002 778 ft 158 kts 161°
2026-05-07 00:54 47.86418 -122.38370 777 ft 156 kts 161°
2026-05-07 00:55 47.85409 -122.37735 776 ft 157 kts 161°
2026-05-07 00:55 47.84400 -122.37110 776 ft 158 kts 161°
2026-05-07 00:55 47.83382 -122.36481 777 ft 156 kts 161°
2026-05-07 00:55 47.82371 -122.35851 778 ft 157 kts 161°
2026-05-07 00:56 47.81363 -122.35229 777 ft 156 kts 161°
2026-05-07 00:56 47.80302 -122.34833 1054 ft 156 kts 176°
2026-05-07 00:56 47.79274 -122.35086 1508 ft 147 kts 196°
2026-05-07 00:56 47.78284 -122.35510 1489 ft 146 kts 196°
2026-05-07 00:57 47.77289 -122.35927 1481 ft 148 kts 196°
2026-05-07 00:57 47.76291 -122.36318 1484 ft 146 kts 196°
2026-05-07 00:57 47.75292 -122.36701 1486 ft 150 kts 196°
2026-05-07 00:57 47.74297 -122.37082 1488 ft 148 kts 196°
2026-05-07 00:58 47.73315 -122.37463 1487 ft 142 kts 196°
2026-05-07 00:58 47.72372 -122.38023 1486 ft 147 kts 206°
2026-05-07 00:58 47.71452 -122.38675 1485 ft 146 kts 206°
2026-05-07 00:58 47.70528 -122.39331 1490 ft 145 kts 206°
2026-05-07 00:59 47.68693 -122.40614 1488 ft 144 kts 206°
2026-05-07 00:59 47.67780 -122.41247 1492 ft 147 kts 206°
2026-05-07 00:59 47.66859 -122.41889 1490 ft 147 kts 206°
2026-05-07 01:00 47.65933 -122.42531 1490 ft 148 kts 206°
2026-05-07 01:00 47.65045 -122.43135 1499 ft 123 kts 204°
2026-05-07 01:00 47.64311 -122.43460 1494 ft 100 kts 193°
2026-05-07 01:00 47.63634 -122.43523 1485 ft 109 kts 186°
2026-05-07 01:01 47.62775 -122.43593 1473 ft 135 kts 186°
2026-05-07 01:01 47.61788 -122.43688 1478 ft 147 kts 186°
2026-05-07 01:01 47.60759 -122.43792 1482 ft 147 kts 186°
2026-05-07 01:01 47.59732 -122.43897 1484 ft 147 kts 186°
2026-05-07 01:02 47.59043 -122.43967 1482 ft 148 kts 186°
2026-05-07 01:02 47.58025 -122.44077 1483 ft 147 kts 186°
2026-05-07 01:02 47.57008 -122.44187 1484 ft 148 kts 186°
2026-05-07 01:02 47.56005 -122.44239 1484 ft 137 kts 179°
2026-05-07 01:03 47.55103 -122.44006 1488 ft 136 kts 170°
2026-05-07 01:03 47.54120 -122.43680 1482 ft 148 kts 170°
2026-05-07 01:03 47.53113 -122.43351 1483 ft 152 kts 171°
2026-05-07 01:03 47.52063 -122.43144 1487 ft 146 kts 177°
2026-05-07 01:04 47.51052 -122.42998 1484 ft 148 kts 177°
2026-05-07 01:04 47.50025 -122.42842 1485 ft 151 kts 177°
2026-05-07 01:04 47.48977 -122.42681 1495 ft 151 kts 177°
2026-05-07 01:04 47.47944 -122.42518 1493 ft 146 kts 178°
2026-05-07 01:05 47.46908 -122.42371 1495 ft 149 kts 178°
2026-05-07 01:05 47.45869 -122.42213 1497 ft 150 kts 178°
2026-05-07 01:05 47.44822 -122.42068 1495 ft 151 kts 178°
2026-05-07 01:05 47.43783 -122.41908 1497 ft 150 kts 178°
2026-05-07 01:06 47.42734 -122.41769 1494 ft 152 kts 178°
2026-05-07 01:06 47.41696 -122.41608 1492 ft 151 kts 178°
2026-05-07 01:06 47.40661 -122.41446 1494 ft 147 kts 178°
2026-05-07 01:06 47.39622 -122.41279 1492 ft 152 kts 178°
2026-05-07 01:07 47.38576 -122.41134 1498 ft 150 kts 178°
2026-05-07 01:07 47.37529 -122.40985 1492 ft 152 kts 178°
2026-05-07 01:07 47.36486 -122.40825 1494 ft 147 kts 178°
2026-05-07 01:07 47.35472 -122.40658 1495 ft 147 kts 178°
2026-05-07 01:08 47.34448 -122.40487 1495 ft 149 kts 178°
2026-05-07 01:08 47.33426 -122.40302 1493 ft 150 kts 178°
2026-05-07 01:08 47.32399 -122.40124 1485 ft 147 kts 178°
2026-05-07 01:08 47.31382 -122.39955 1487 ft 150 kts 178°
2026-05-07 01:09 47.30371 -122.39789 1488 ft 145 kts 178°
2026-05-07 01:09 47.29346 -122.39609 1485 ft 148 kts 178°
2026-05-07 01:09 47.28321 -122.39335 1481 ft 155 kts 169°
2026-05-07 01:09 47.27349 -122.38558 1484 ft 160 kts 147°
2026-05-07 01:10 47.26488 -122.37586 1487 ft 159 kts 147°
2026-05-07 01:10 47.25624 -122.36569 1490 ft 159 kts 147°
2026-05-07 01:10 47.24752 -122.35554 1483 ft 160 kts 147°
2026-05-07 01:10 47.23874 -122.34542 1485 ft 159 kts 147°
2026-05-07 01:11 47.22987 -122.33539 1485 ft 159 kts 147°
2026-05-07 01:11 47.22103 -122.32577 1483 ft 158 kts 147°
2026-05-07 01:11 47.21213 -122.31653 1481 ft 148 kts 145°
2026-05-07 01:11 47.20381 -122.30745 1483 ft 154 kts 147°
2026-05-07 01:12 47.19523 -122.29777 1483 ft 161 kts 147°
2026-05-07 01:12 47.18645 -122.28781 1483 ft 161 kts 147°
2026-05-07 01:12 47.17770 -122.27744 1484 ft 162 kts 147°
2026-05-07 01:12 47.16894 -122.26710 1484 ft 163 kts 147°
2026-05-07 01:13 47.16008 -122.25694 1482 ft 160 kts 147°
2026-05-07 01:13 47.15129 -122.24672 1482 ft 160 kts 147°
2026-05-07 01:13 47.14247 -122.23660 1481 ft 163 kts 147°
2026-05-07 01:13 47.13367 -122.22635 1481 ft 163 kts 146°
2026-05-07 01:14 47.12476 -122.21656 1484 ft 160 kts 147°
2026-05-07 01:14 47.11605 -122.20673 1480 ft 158 kts 147°
2026-05-07 01:14 47.10728 -122.19672 1495 ft 158 kts 147°
2026-05-07 01:14 47.09850 -122.18676 1495 ft 162 kts 147°
2026-05-07 01:15 47.08968 -122.17670 1489 ft 160 kts 147°
2026-05-07 01:15 47.08064 -122.16728 1491 ft 160 kts 147°
2026-05-07 01:15 47.07164 -122.15752 1496 ft 159 kts 147°
2026-05-07 01:15 47.06274 -122.14787 1962 ft 155 kts 147°
2026-05-07 01:16 47.05414 -122.13854 2359 ft 155 kts 140°
2026-05-07 01:16 47.04602 -122.12799 2606 ft 157 kts 140°
2026-05-07 01:16 47.03776 -122.11729 2790 ft 159 kts 140°
2026-05-07 01:16 47.02961 -122.10655 2802 ft 157 kts 140°
2026-05-07 01:17 47.02166 -122.09496 2785 ft 165 kts 132°
2026-05-07 01:17 47.01503 -122.08181 2782 ft 159 kts 128°
2026-05-07 01:17 47.00841 -122.06861 2789 ft 162 kts 128°
2026-05-07 01:17 47.00185 -122.05544 2792 ft 157 kts 128°
2026-05-07 01:18 46.99543 -122.04254 3040 ft 155 kts 128°
2026-05-07 01:18 46.98914 -122.02937 3273 ft 160 kts 128°
2026-05-07 01:18 46.98299 -122.01578 3667 ft 159 kts 128°
2026-05-07 01:18 46.97675 -122.00272 4282 ft 154 kts 128°
2026-05-07 01:19 46.97070 -121.98984 4930 ft 154 kts 128°
2026-05-07 01:19 46.96460 -121.97713 5433 ft 151 kts 128°
2026-05-07 01:19 46.95844 -121.96394 5837 ft 162 kts 128°
2026-05-07 01:19 46.95197 -121.94996 6349 ft 169 kts 128°
2026-05-07 01:20 46.94510 -121.93562 6650 ft 175 kts 128°
2026-05-07 01:20 46.93805 -121.92061 6770 ft 181 kts 128°
2026-05-07 01:20 46.93117 -121.90574 6848 ft 174 kts 128°
2026-05-07 01:20 46.92413 -121.89084 7196 ft 179 kts 128°
2026-05-07 01:21 46.91729 -121.87589 7864 ft 176 kts 128°
2026-05-07 01:21 46.91034 -121.86101 8556 ft 179 kts 128°
2026-05-07 01:21 46.90330 -121.84548 9232 ft 188 kts 128°
2026-05-07 01:21 46.89593 -121.82921 9899 ft 195 kts 128°
2026-05-07 01:22 46.88832 -121.81241 10421 ft 198 kts 127°
2026-05-07 01:22 46.88193 -121.79648 11109 ft 168 kts 123°
2026-05-07 01:22 46.87709 -121.78269 12183 ft 139 kts 124°
2026-05-07 01:22 46.87126 -121.77311 13111 ft 127 kts 152°
2026-05-07 01:23 46.86457 -121.76355 13820 ft 135 kts 148°
2026-05-07 01:23 46.85792 -121.75399 14381 ft 134 kts 148°
2026-05-07 01:23 46.85118 -121.74449 14338 ft 133 kts 152°
2026-05-07 01:23 46.84380 -121.73981 14318 ft 98 kts 215°
2026-05-07 01:24 46.83966 -121.74437 14274 ft 71 kts 253°
2026-05-07 01:24 46.83632 -121.74989 14286 ft 71 kts 249°
2026-05-07 01:24 46.83324 -121.75521 14313 ft 61 kts 271°
2026-05-07 01:24 46.83455 -121.75984 14398 ft 68 kts 315°
2026-05-07 01:25 46.83936 -121.76356 14410 ft 79 kts 318°
2026-05-07 01:25 46.84398 -121.76729 14357 ft 73 kts 310°
2026-05-07 01:25 46.84784 -121.77310 13975 ft 90 kts 307°
2026-05-07 01:25 46.85230 -121.78000 13645 ft 92 kts 306°
2026-05-07 01:26 46.85677 -121.78677 13074 ft 93 kts 307°
2026-05-07 01:26 46.86194 -121.79182 12895 ft 93 kts 354°
2026-05-07 01:26 46.86836 -121.78755 12958 ft 109 kts 44°
2026-05-07 01:26 46.87259 -121.77808 12856 ft 116 kts 60°
2026-05-07 01:27 46.87493 -121.76638 12236 ft 121 kts 66°
2026-05-07 01:27 46.87803 -121.75484 11354 ft 125 kts 75°
2026-05-07 01:27 46.87929 -121.74262 10456 ft 122 kts 72°
2026-05-07 01:27 46.88110 -121.73055 9774 ft 119 kts 69°
2026-05-07 01:28 46.88241 -121.71869 9356 ft 118 kts 76°
2026-05-07 01:28 46.88302 -121.70700 9030 ft 109 kts 88°
2026-05-07 01:28 46.87940 -121.70026 8970 ft 74 kts 208°
2026-05-07 01:28 46.87714 -121.70102 8993 ft 37 kts 281°
2026-05-07 01:29 46.87853 -121.70743 8732 ft 88 kts 284°
2026-05-07 01:29 46.87932 -121.71580 8833 ft 74 kts 302°
2026-05-07 01:29 46.88098 -121.72194 8971 ft 54 kts 265°
2026-05-07 01:29 46.88073 -121.72473 8932 ft 23 kts 218°
2026-05-07 01:30 46.87916 -121.72393 8870 ft 16 kts 291°
2026-05-07 01:30 46.87967 -121.72402 8791 ft 12 kts 297°
2026-05-07 01:30 46.87958 -121.72441 8649 ft 0 kts 299°
2026-05-07 01:30 46.87959 -121.72440 8510 ft 0 kts 300°
2026-05-07 01:31 46.87958 -121.72440 8396 ft 0 kts 298°
2026-05-07 01:31 46.87950 -121.72447 8411 ft 2 kts 298°
2026-05-07 01:31 46.87938 -121.72457 8435 ft 2 kts 298°
2026-05-07 01:31 46.87934 -121.72492 8467 ft 5 kts 298°
2026-05-07 01:32 46.87936 -121.72534 8490 ft 2 kts 298°
2026-05-07 01:32 46.87940 -121.72544 8432 ft 0 kts 298°
2026-05-07 01:33 46.87941 -121.72545 8375 ft 0 kts 299°
2026-05-07 01:33 46.87943 -121.72551 8383 ft 1 kts 298°
2026-05-07 01:33 46.87943 -121.72552 8383 ft 0 kts 299°
2026-05-07 01:34 46.87944 -121.72552 8383 ft 0 kts 299°
2026-05-07 01:34 46.87944 -121.72553 8384 ft 0 kts 299°
2026-05-07 01:35 46.87945 -121.72553 8382 ft 0 kts 299°
2026-05-07 01:35 46.87944 -121.72554 8383 ft 0 kts 299°
2026-05-07 01:35 46.87945 -121.72554 8382 ft 0 kts 299°
2026-05-07 01:36 46.87945 -121.72555 8381 ft 0 kts 299°
2026-05-07 01:36 46.87945 -121.72556 8383 ft 0 kts 299°
2026-05-07 01:36 46.87946 -121.72556 8381 ft 0 kts 299°
2026-05-07 01:37 46.87946 -121.72557 8382 ft 0 kts 298°
2026-05-07 01:37 46.87947 -121.72557 8381 ft 0 kts 300°
2026-05-07 01:38 46.87950 -121.72561 8380 ft 5 kts 304°
2026-05-07 01:38 46.88027 -121.72639 8459 ft 17 kts 314°
2026-05-07 01:38 46.88205 -121.72846 8655 ft 62 kts 315°
2026-05-07 01:38 46.88688 -121.73373 8382 ft 109 kts 316°
2026-05-07 01:39 46.89343 -121.74151 8077 ft 131 kts 318°
2026-05-07 01:39 46.90090 -121.75014 7779 ft 144 kts 320°
2026-05-07 01:39 46.90992 -121.75848 7411 ft 163 kts 323°
2026-05-07 01:39 46.91958 -121.76744 7190 ft 160 kts 324°
2026-05-07 01:40 46.92890 -121.77550 7195 ft 154 kts 324°
2026-05-07 01:40 46.93807 -121.78386 7209 ft 157 kts 324°
2026-05-07 01:40 46.94746 -121.79245 7203 ft 160 kts 324°
2026-05-07 01:40 46.95694 -121.80116 7033 ft 160 kts 321°
2026-05-07 01:41 46.96562 -121.81059 6892 ft 154 kts 317°
2026-05-07 01:41 46.97427 -121.81990 6883 ft 155 kts 318°
2026-05-07 01:41 46.98295 -121.82954 6877 ft 157 kts 318°
2026-05-07 01:41 46.99173 -121.83928 6877 ft 159 kts 318°
2026-05-07 01:42 47.00044 -121.84879 6874 ft 157 kts 318°
2026-05-07 01:42 47.00916 -121.85845 6893 ft 158 kts 318°
2026-05-07 01:42 47.01791 -121.86818 6884 ft 156 kts 318°
2026-05-07 01:42 47.02663 -121.87774 6899 ft 156 kts 318°
2026-05-07 01:43 47.03533 -121.88716 6903 ft 155 kts 318°
2026-05-07 01:43 47.04305 -121.89793 6914 ft 153 kts 306°
2026-05-07 01:43 47.04887 -121.91107 6859 ft 154 kts 299°
2026-05-07 01:43 47.05480 -121.92415 6365 ft 150 kts 300°
2026-05-07 01:44 47.06063 -121.93742 5834 ft 161 kts 299°
2026-05-07 01:44 47.06622 -121.95065 5418 ft 154 kts 300°
2026-05-07 01:44 47.07003 -121.95956 5236 ft 152 kts 299°
2026-05-07 01:44 47.07563 -121.97315 4988 ft 159 kts 300°
2026-05-07 01:45 47.08299 -121.99174 4657 ft 160 kts 299°
2026-05-07 01:45 47.08857 -122.00605 4455 ft 163 kts 299°
2026-05-07 01:45 47.09236 -122.01590 4334 ft 164 kts 299°
2026-05-07 01:45 47.09985 -122.03495 4145 ft 163 kts 299°
2026-05-07 01:46 47.10367 -122.04472 4021 ft 163 kts 299°
2026-05-07 01:46 47.10929 -122.05882 3740 ft 158 kts 300°
2026-05-07 01:46 47.11649 -122.07711 3350 ft 153 kts 300°
2026-05-07 01:46 47.12004 -122.08620 3185 ft 157 kts 300°
2026-05-07 01:47 47.12565 -122.09939 2943 ft 153 kts 300°
2026-05-07 01:47 47.13138 -122.11265 2744 ft 150 kts 295°
2026-05-07 01:47 47.13472 -122.12535 2523 ft 118 kts 282°
2026-05-07 01:47 47.13655 -122.13602 2380 ft 97 kts 281°
2026-05-07 01:48 47.13797 -122.14487 2209 ft 83 kts 279°
2026-05-07 01:48 47.13918 -122.15301 1994 ft 81 kts 278°
2026-05-07 01:48 47.14047 -122.16057 1867 ft 67 kts 282°
2026-05-07 01:48 47.14164 -122.16650 1636 ft 56 kts 277°
2026-05-07 01:49 47.14312 -122.17201 1610 ft 64 kts 295°
2026-05-07 01:49 47.14517 -122.17763 1494 ft 60 kts 297°
2026-05-07 01:49 47.14707 -122.18293 1351 ft 61 kts 296°
2026-05-07 01:49 47.14905 -122.18877 1179 ft 65 kts 292°
2026-05-07 01:50 47.15113 -122.19538 1021 ft 81 kts 291°
2026-05-07 01:50 47.15343 -122.20295 894 ft 83 kts 293°
2026-05-07 01:50 47.15564 -122.21041 805 ft 74 kts 291°
2026-05-07 01:50 47.15736 -122.21742 774 ft 77 kts 289°
2026-05-07 01:51 47.15907 -122.22484 780 ft 74 kts 288°
2026-05-07 01:51 47.16077 -122.23211 874 ft 78 kts 286°
2026-05-07 01:51 47.16284 -122.23977 973 ft 83 kts 290°
2026-05-07 01:51 47.16545 -122.24745 963 ft 84 kts 294°
2026-05-07 01:52 47.16827 -122.25490 915 ft 83 kts 298°
2026-05-07 01:52 47.17096 -122.26192 929 ft 75 kts 297°
2026-05-07 01:52 47.17339 -122.26811 879 ft 64 kts 299°
2026-05-07 01:52 47.17548 -122.27392 817 ft 66 kts 290°
2026-05-07 01:53 47.17681 -122.28012 735 ft 57 kts 285°
2026-05-07 01:53 47.17768 -122.28468 611 ft 36 kts 277°
2026-05-07 01:53 47.17824 -122.28735 448 ft 22 kts 272°
2026-05-07 01:53 47.17851 -122.28909 326 ft 12 kts 274°
2026-05-07 01:54 47.17858 -122.28965 293 ft 3 kts 271°
2026-05-07 01:54 47.17859 -122.28974 276 ft 0 kts 277°
2026-05-07 01:54 47.17860 -122.28976 271 ft 0 kts 275°
2026-05-07 01:55 47.17860 -122.28980 271 ft 0 kts 275°
2026-05-07 01:56 47.17860 -122.28981 273 ft 0 kts 278°
2026-05-07 01:56 47.17868 -122.29123 327 ft 51 kts 281°
2026-05-07 01:56 47.18208 -122.29940 416 ft 126 kts 303°
2026-05-07 01:56 47.18831 -122.31056 398 ft 154 kts 311°
2026-05-07 01:57 47.19567 -122.32188 679 ft 142 kts 313°
2026-05-07 01:57 47.20229 -122.33155 1012 ft 130 kts 313°
2026-05-07 01:57 47.20878 -122.34125 1014 ft 132 kts 313°
2026-05-07 01:57 47.21528 -122.35108 1000 ft 135 kts 313°
2026-05-07 01:58 47.22181 -122.36077 997 ft 131 kts 313°
2026-05-07 01:58 47.22837 -122.37049 994 ft 132 kts 313°
2026-05-07 01:58 47.23504 -122.37990 992 ft 132 kts 313°
2026-05-07 01:58 47.24259 -122.38888 987 ft 146 kts 324°
2026-05-07 01:59 47.25182 -122.39511 991 ft 134 kts 334°
2026-05-07 01:59 47.26080 -122.40003 992 ft 139 kts 335°
2026-05-07 01:59 47.26991 -122.40500 978 ft 145 kts 334°
2026-05-07 01:59 47.27903 -122.41034 990 ft 140 kts 334°
2026-05-07 02:00 47.28801 -122.41547 988 ft 141 kts 335°
2026-05-07 02:00 47.29721 -122.42055 986 ft 142 kts 334°
2026-05-07 02:00 47.30640 -122.42571 987 ft 145 kts 335°
2026-05-07 02:00 47.31565 -122.43107 993 ft 141 kts 335°
2026-05-07 02:01 47.32473 -122.43626 982 ft 145 kts 335°
2026-05-07 02:01 47.33406 -122.44150 992 ft 140 kts 335°
2026-05-07 02:01 47.34314 -122.44677 986 ft 141 kts 335°
2026-05-07 02:01 47.35229 -122.45209 988 ft 139 kts 335°
2026-05-07 02:02 47.36140 -122.45753 989 ft 142 kts 335°
2026-05-07 02:02 47.37066 -122.46283 999 ft 144 kts 335°
2026-05-07 02:02 47.38024 -122.46599 999 ft 141 kts 355°
2026-05-07 02:02 47.39023 -122.46511 1000 ft 146 kts 360°
2026-05-07 02:03 47.40033 -122.46416 997 ft 146 kts 360°
2026-05-07 02:03 47.41043 -122.46345 994 ft 146 kts 360°
2026-05-07 02:03 47.42056 -122.46259 994 ft 145 kts 360°
2026-05-07 02:03 47.43060 -122.46184 1000 ft 143 kts 360°
2026-05-07 02:04 47.44058 -122.46134 998 ft 144 kts 360°
2026-05-07 02:04 47.45051 -122.46069 996 ft 144 kts
2026-05-07 02:04 47.46055 -122.46006 991 ft 144 kts
2026-05-07 02:04 47.47047 -122.45961 991 ft 144 kts
2026-05-07 02:05 47.48045 -122.45909 1000 ft 145 kts 360°
2026-05-07 02:05 47.49054 -122.45851 1001 ft 144 kts
2026-05-07 02:05 47.50058 -122.45821 983 ft 144 kts 360°
2026-05-07 02:05 47.51069 -122.45798 992 ft 146 kts
2026-05-07 02:06 47.52078 -122.45776 984 ft 146 kts 360°
2026-05-07 02:06 47.53084 -122.45752 990 ft 146 kts 360°
2026-05-07 02:06 47.54078 -122.45803 991 ft 138 kts 351°
2026-05-07 02:06 47.55065 -122.46041 989 ft 142 kts 349°
2026-05-07 02:07 47.56052 -122.46283 992 ft 143 kts 349°
2026-05-07 02:07 47.58043 -122.46770 990 ft 144 kts 349°
2026-05-07 02:07 47.59037 -122.47015 987 ft 147 kts 349°
2026-05-07 02:08 47.60041 -122.47254 986 ft 145 kts 349°
2026-05-07 02:08 47.61037 -122.47487 990 ft 144 kts 349°
2026-05-07 02:08 47.62029 -122.47721 990 ft 143 kts 349°
2026-05-07 02:08 47.63017 -122.47951 989 ft 144 kts 349°
2026-05-07 02:09 47.64011 -122.48183 990 ft 141 kts 349°
2026-05-07 02:09 47.64999 -122.48417 991 ft 143 kts 349°
2026-05-07 02:09 47.65993 -122.48658 993 ft 144 kts 349°
2026-05-07 02:09 47.66990 -122.48894 987 ft 146 kts 349°
2026-05-07 02:10 47.67990 -122.49125 989 ft 143 kts 349°
2026-05-07 02:10 47.68992 -122.49354 989 ft 145 kts 349°
2026-05-07 02:10 47.69985 -122.49586 988 ft 144 kts 349°
2026-05-07 02:10 47.70989 -122.49817 985 ft 147 kts 349°
2026-05-07 02:11 47.71983 -122.50051 985 ft 147 kts 349°
2026-05-07 02:11 47.72972 -122.50301 987 ft 138 kts 349°
2026-05-07 02:11 47.73920 -122.50571 991 ft 139 kts 349°
2026-05-07 02:11 47.74878 -122.50841 987 ft 141 kts 349°
2026-05-07 02:12 47.75838 -122.51112 986 ft 139 kts 349°
2026-05-07 02:12 47.76790 -122.51379 991 ft 140 kts 349°
2026-05-07 02:12 47.77744 -122.51640 973 ft 140 kts 349°
2026-05-07 02:12 47.78692 -122.51900 976 ft 140 kts 349°
2026-05-07 02:13 47.79644 -122.52165 969 ft 139 kts 349°
2026-05-07 02:13 47.80601 -122.52429 967 ft 140 kts 349°
2026-05-07 02:13 47.81577 -122.52694 979 ft 146 kts 349°
2026-05-07 02:13 47.82599 -122.52964 977 ft 152 kts 349°
2026-05-07 02:14 47.83656 -122.53241 982 ft 155 kts 349°
2026-05-07 02:14 47.84724 -122.53523 980 ft 157 kts 349°
2026-05-07 02:14 47.85816 -122.53814 980 ft 161 kts 349°
2026-05-07 02:14 47.86925 -122.54099 960 ft 164 kts 349°
2026-05-07 02:15 47.88050 -122.54396 970 ft 165 kts 349°
2026-05-07 02:15 47.89179 -122.54699 971 ft 165 kts 349°
2026-05-07 02:15 47.90305 -122.54995 972 ft 165 kts 349°
2026-05-07 02:15 47.91433 -122.55290 974 ft 165 kts 349°
2026-05-07 02:16 47.92558 -122.55588 973 ft 164 kts 349°
2026-05-07 02:16 47.93687 -122.55887 972 ft 164 kts 349°
2026-05-07 02:16 47.94807 -122.56188 970 ft 163 kts 349°
2026-05-07 02:16 47.95919 -122.56485 956 ft 162 kts 349°
2026-05-07 02:17 47.97031 -122.56779 959 ft 161 kts 349°
2026-05-07 02:17 47.98137 -122.57074 957 ft 161 kts 349°
2026-05-07 02:17 47.99237 -122.57365 997 ft 159 kts 349°
2026-05-07 02:17 48.00338 -122.57656 995 ft 160 kts 349°
2026-05-07 02:18 48.01438 -122.57950 996 ft 161 kts 349°
2026-05-07 02:18 48.02540 -122.58244 999 ft 161 kts 349°
2026-05-07 02:18 48.03644 -122.58536 1004 ft 161 kts 350°
2026-05-07 02:18 48.04741 -122.58827 1011 ft 160 kts 349°
2026-05-07 02:19 48.05843 -122.59116 1005 ft 161 kts 350°
2026-05-07 02:19 48.06941 -122.59406 1008 ft 160 kts 349°
2026-05-07 02:19 48.08038 -122.59695 1018 ft 160 kts 350°
2026-05-07 02:19 48.09138 -122.59984 1025 ft 160 kts 349°
2026-05-07 02:20 48.10236 -122.60274 1027 ft 160 kts 349°
2026-05-07 02:20 48.11337 -122.60564 1027 ft 161 kts 349°
2026-05-07 02:20 48.12437 -122.60852 1025 ft 161 kts 349°
2026-05-07 02:20 48.13540 -122.61140 1025 ft 161 kts 350°
2026-05-07 02:21 48.14641 -122.61431 1026 ft 160 kts 349°
2026-05-07 02:21 48.15744 -122.61722 1023 ft 161 kts 349°
2026-05-07 02:21 48.16824 -122.62006 1033 ft 155 kts 350°
2026-05-07 02:21 48.17875 -122.62278 1030 ft 152 kts 349°
2026-05-07 02:22 48.18914 -122.62545 1031 ft 152 kts 349°
2026-05-07 02:22 48.19967 -122.62768 1028 ft 153 kts 350°
2026-05-07 02:22 48.21027 -122.62998 1028 ft 154 kts 350°
2026-05-07 02:22 48.22082 -122.63231 1027 ft 154 kts 349°
2026-05-07 02:23 48.23144 -122.63477 1035 ft 155 kts 350°
2026-05-07 02:23 48.24215 -122.63720 1038 ft 155 kts 350°
2026-05-07 02:23 48.25272 -122.63926 1038 ft 152 kts 352°
2026-05-07 02:23 48.26312 -122.64086 1042 ft 148 kts 352°
2026-05-07 02:24 48.27330 -122.64250 1038 ft 147 kts 352°
2026-05-07 02:24 48.28344 -122.64409 1063 ft 145 kts 353°
2026-05-07 02:24 48.29319 -122.64521 997 ft 138 kts 355°
2026-05-07 02:24 48.30253 -122.64632 1010 ft 131 kts 352°
2026-05-07 02:25 48.31133 -122.64754 943 ft 122 kts 352°
2026-05-07 02:25 48.31959 -122.64849 868 ft 117 kts 353°
2026-05-07 02:25 48.32741 -122.64945 754 ft 108 kts 352°
2026-05-07 02:25 48.33453 -122.65095 645 ft 102 kts 346°
2026-05-07 02:26 48.34090 -122.65331 437 ft 80 kts 341°
2026-05-07 02:26 48.34472 -122.65545 223 ft 39 kts 327°
2026-05-07 02:26 48.34589 -122.65776 99 ft 29 kts 281°
2026-05-07 02:26 48.34565 -122.66000 51 ft 18 kts 260°
2026-05-07 02:27 48.34539 -122.66146 31 ft 11 kts 257°
2026-05-07 02:27 48.34515 -122.66274 23 ft 12 kts 253°
2026-05-07 02:27 48.34498 -122.66373 21 ft 16 kts 253°
2026-05-07 02:27 48.34463 -122.66540 23 ft 16 kts 251°
2026-05-07 02:28 48.34440 -122.66645 21 ft 0 kts 235°
2026-05-07 02:28 48.34420 -122.66656 23 ft 0 kts 147°